{"data":{"norad_id":60728,"intl_designator":"2024-152J","name":"STARLINK-11249 [DTC]","alt_names":[],"object_type":"PAYLOAD","status":"ACTIVE","operator":null,"country":"US","launch_date":"2024-08-28","launch_site_code":"AFETR","launch_vehicle":null,"mission":null,"orbit_class":"UNKNOWN","rcs_meters":null,"size_class":null,"mass_kg":null,"dimensions":null,"purposes":["comms"],"wikipedia_slug":null,"has_3d_model":false,"image_url":null,"decayed_at":null,"tle_current":{"epoch":"2026-09-21T21:32:40.021152Z","epoch_age_seconds":67674,"freshness":"FRESH","line1":"1 60728U 24152J   26264.89768543  .00002122  00000+0  22380-4 0  9992","line2":"2 60728  53.1592 228.8826 0001076  81.3087 278.8052 15.69697758119654","mean_motion":15.69697758,"eccentricity":0.0001076,"inclination_deg":53.1592,"raan_deg":228.8826,"arg_perigee_deg":81.3087,"mean_anomaly_deg":278.8052,"bstar":2.238e-5,"rev_number":11965,"period_min":91.737405666856,"perigee_km":359.03678465646,"apogee_km":360.48678047447,"semimajor_km":6737.8987825655,"source":"CELESTRAK","updated_at":"2026-09-22T09:00:49.278723Z"}}}